Temperature
17 17 17 17 17 16 16 16 16 16 16 16 16 16 16 16 16 16 15 15 15 15 15 15 15 15 15 15 15 15 15 15 14 14 14 14 14 14 14 14 14 14 14
17 17 17 17 16 16 16 16 16 16 16 16 16 16 16 16 16 15 15 15 15 15 15 15 15 15 15 15 15 14 14 14 14 14 14 14 14 14 14 14 14 14 14
17 17 17 16 16 16 16 16 16 16 16 16 16 16 16 16 15 15 15 15 15 15 15 15 15 14 14 14 14 14 14 14 14 14 14 14 14 14 14 14 14 13 13
17 16 16 16 16 16 16 16 16 15 15 15 15 15 15 15 15 15 15 15 15 15 15 14 14 14 14 14 14 14 14 14 14 14 14 14 14 13 13 13 13 13 13
16 16 16 16 16 16 15 15 15 15 15 15 15 15 15 15 15 15 15 15 15 14 14 14 14 14 14 14 14 14 14 14 13 13 13 13 13 13 13 13 13 13 13
16 16 16 15 15 15 15 15 15 15 15 15 15 15 14 14 14 14 14 14 14 14 14 14 14 14 14 14 14 14 14 14 13 13 13 13 13 13 13 13 13 12 12
15 15 15 15 15 15 15 15 14 14 14 14 14 14 14 14 14 14 14 14 14 14 14 14 14 14 14 14 14 13 13 13 13 13 13 13 13 13 12 12 12 12 12
15 15 15 14 14 14 14 14 14 14 14 14 14 14 14 14 14 13 14 14 14 14 13 13 13 13 13 13 13 13 13 13 13 13 13 13 12 12 12 12 12 12 12
15 14 14 14 14 14 14 14 14 14 14 14 13 13 13 13 13 13 13 13 13 13 13 13 13 13 13 13 13 13 13 13 12 12 12 12 12 12 12 12 12 11 11
14 14 14 14 14 14 13 13 13 13 13 13 13 13 13 13 13 13 13 13 13 13 13 13 13 13 13 13 12 12 12 12 12 12 12 12 12 12 12 12 11 11 11
14 14 14 14 13 13 13 13 13 13 13 13 13 13 13 13 13 13 13 13 13 13 13 13 12 12 12 12 12 12 12 12 12 12 12 12 12 12 12 11 11 11 11
13 13 13 13 13 13 13 13 12 12 13 12 13 13 13 12 12 12 12 12 12 12 12 12 12 12 12 12 12 12 12 12 12 12 11 11 11 11 11 11 11 11 11
13 13 13 12 12 12 12 12 12 12 12 12 12 12 12 12 12 12 12 12 12 12 12 12 12 12 12 12 12 12 11 11 11 11 11 11 11 11 11 11 11 11 11
12 12 12 12 12 12 12 12 12 12 12 12 12 12 12 12 12 12 12 12 12 11 11 11 11 11 11 11 11 11 11 11 11 11 11 11 10 10 10 10 10 10 10
12 12 12 12 12 12 11 11 11 11 11 11 11 11 11 11 12 12 12 11 11 11 11 11 11 11 11 11 11 11 10 10 10 10 10 10 10 10 10 10 10 10 10
12 12 11 11 11 11 11 11 11 11 11 11 11 11 11 11 11 11 11 11 11 11 10 10 10 10 10 10 10 10 10 10 10 10 10 10 10 10 10 10 10 10 9
11 11 11 11 11 11 11 11 11 11 11 11 11 11 11 11 10 10 10 10 10 10 10 10 10 10 10 10 10 10 10 9 9 9 9 9 9 9 9 9 9 9 9
11 11 11 11 11 11 10 10 10 10 10 10 10 10 10 10 10 10 10 10 10 10 10 10 10 10 10 9 9 9 9 9 9 9 9 9 9 9 9 9 9 9 9
11 11 11 10 10 10 10 10 10 10 10 10 10 10 10 10 10 10 10 10 10 10 9 9 9 9 9 9 9 9 9 9 9 9 9 9 9 9 9 9 8 8 8
11 10 10 10 10 10 10 10 10 10 10 10 10 10 10 10 10 10 10 10 10 9 9 9 9 9 9 9 9 9 9 9 9 8 8 8 8 8 8 8 8 8 8
10 10 10 10 10 10 10 10 10 9 9 10 10 9 9 9 9 9 9 9 9 9 9 9 9 9 9 9 9 8 8 8 8 8 8 8 8 8 8 8 8 8 8
10 10 10 10 10 10 9 9 9 9 9 9 9 9 9 9 9 9 9 9 9 9 9 9 9 9 9 8 8 8 8 8 8 8 8 8 8 8 8 8 8 7 7
10 9 9 9 9 9 9 9 9 9 9 9 9 9 9 9 9 9 9 9 9 9 9 9 9 8 8 8 8 8 8 8 8 8 8 8 8 8 8 7 7 7 7
9 9 9 9 9 9 9 9 9 9 9 9 9 9 9 9 9 9 9 9 9 9 9 8 8 8 8 8 8 8 8 8 8 8 8 8 8 7 7 7 7 7 7
9 9 9 9 9 9 9 9 9 8 8 8 8 8 8 9 9 8 8 8 8 8 8 8 8 8 8 8 8 8 7 7 7 7 7 7 7 7 7 7 7 7 7
9 9 9 8 8 8 8 8 8 8 8 8 8 8 8 8 8 8 8 8 8 8 8 8 8 8 8 7 7 7 7 7 7 7 7 7 7 7 7 7 6 6 6
Wind_Speed
1 2 2 2 1 1 2 2 2 1 1 1 1 1 2 1 2 2 2 2 2 1 1 2 1 1 1 1 1 1 1 2 2 1 0 0 1 1 1 1 0 0 0
1 2 2 2 1 1 1 1 1 1 1 1 1 1 1 2 2 3 3 3 2 2 1 2 1 1 1 1 1 1 1 1 2 1 1 0 0 0 0 0 0 0 1
1 1 1 1 1 1 1 1 1 1 1 1 1 1 1 2 2 2 3 3 3 2 2 2 2 2 1 1 1 1 1 1 1 2 1 0 0 0 1 1 1 1 1
0 0 1 1 2 2 1 0 1 1 2 1 1 1 1 1 2 2 2 2 2 2 2 2 2 2 3 2 2 2 1 1 1 1 0 1 0 0 1 0 1 1 1
1 1 2 2 1 1 0 0 1 1 1 2 1 1 0 1 1 2 3 2 2 2 1 2 2 3 3 3 2 3 3 2 2 1 1 1 1 1 1 1 1 1 1
1 1 1 1 0 1 1 1 1 1 0 0 1 1 0 1 0 1 2 2 2 2 2 2 1 1 2 2 2 3 4 4 3 2 2 2 2 2 1 1 1 1 1
0 0 0 0 0 1 1 1 1 1 0 0 0 1 1 1 1 1 3 2 2 2 2 2 2 1 2 2 2 2 2 3 5 4 4 3 3 3 3 2 2 2 2
0 0 0 0 0 1 1 1 1 1 0 1 0 0 1 2 1 1 2 2 1 1 2 2 2 1 2 3 2 1 1 2 3 3 4 4 4 3 4 3 2 1 1
0 1 1 1 1 1 1 1 1 0 0 0 0 0 1 2 2 2 3 2 1 1 1 1 2 2 2 3 3 2 1 2 2 2 3 3 3 3 3 2 2 1 1
2 2 1 1 1 2 2 2 1 0 1 0 1 1 1 2 3 3 3 2 2 2 1 2 2 2 2 3 3 3 3 3 2 1 1 2 1 1 3 4 4 3 1
1 1 1 1 2 2 2 1 1 0 0 0 1 2 2 2 2 2 3 3 3 3 2 2 2 2 2 2 3 4 5 4 2 2 1 1 1 1 1 2 3 4 3
1 0 1 1 1 1 1 1 1 1 0 1 1 2 2 2 2 2 3 4 4 3 3 3 3 3 3 3 3 4 5 3 2 2 1 1 1 2 2 2 2 4 4
1 1 1 1 1 1 1 1 0 0 1 1 1 2 3 3 2 2 2 3 3 3 3 3 3 3 2 2 3 3 3 2 2 2 3 3 2 2 2 1 1 1 2
1 1 1 1 0 1 1 1 1 1 2 2 2 3 3 3 2 2 1 1 1 2 2 1 1 1 1 2 2 1 2 3 3 3 3 2 1 1 1 1 1 1 1
1 1 1 1 1 1 1 1 2 3 4 4 4 3 3 4 4 3 2 1 1 2 1 0 0 0 1 1 1 1 1 1 3 3 3 2 1 1 1 1 1 1 1
2 2 1 1 1 1 1 1 2 2 3 4 5 4 4 5 4 2 2 2 2 3 3 1 2 2 2 2 2 2 2 2 2 3 3 3 2 2 2 1 1 1 2
3 3 2 2 2 2 2 1 2 2 2 2 3 3 4 3 3 2 2 2 1 3 2 2 3 3 3 3 2 2 3 3 2 2 3 3 3 2 2 2 2 2 2
3 3 3 3 3 2 2 2 2 2 2 3 3 2 2 2 3 2 2 2 1 1 2 3 3 3 3 3 3 3 2 2 2 2 3 3 3 3 3 2 2 3 3
2 2 2 2 2 2 2 2 2 2 2 2 2 2 1 1 1 2 3 2 2 3 3 3 3 3 3 3 3 3 3 3 3 3 3 3 3 3 3 3 3 3 3
2 2 2 2 1 1 1 1 2 2 2 2 2 2 1 0 0 1 1 2 3 3 4 4 4 3 3 3 3 3 3 3 3 3 3 3 3 3 3 3 3 2 3
1 1 1 1 1 1 2 2 2 2 2 2 3 3 3 2 3 3 3 3 4 4 4 4 4 3 3 3 3 3 4 4 3 3 3 3 3 3 3 3 3 3 3
1 1 1 2 1 1 1 2 2 2 3 3 3 3 4 3 3 3 4 4 4 4 4 4 4 4 3 4 3 3 4 4 3 3 3 3 3 3 3 3 2 2 2
2 2 1 1 1 1 1 2 2 2 3 3 3 3 2 3 4 4 4 4 4 4 4 3 4 3 3 3 3 3 4 4 3 3 4 3 3 3 3 3 3 3 3
2 2 2 1 1 1 2 2 2 2 3 3 3 3 3 4 4 4 4 4 4 4 3 3 4 5 4 3 3 3 4 4 3 3 4 4 4 3 3 3 3 3 3
2 2 2 2 2 2 2 2 2 2 3 3 3 3 3 3 3 4 4 4 4 4 4 3 3 3 4 4 3 3 3 3 3 3 3 3 3 3 3 3 2 2 2
2 2 2 2 2 2 2 2 2 2 2 3 3 3 3 3 3 3 4 4 4 4 4 3 3 3 3 4 4 3 3 3 3 3 3 2 3 3 3 2 2 2 2
Wind_Direction
233 214 201 211 215 206 225 232 214 197 184 181 199 165 156 159 153 144 159 151 138 118 97 106 92 91 109 112 116 121 148 174 204 273 273 323 88 62 20 30 57 242 213
233 218 219 221 201 199 230 235 191 180 182 184 174 151 154 157 158 161 170 169 166 167 168 145 160 120 116 125 128 144 164 179 186 241 306 346 52 187 88 87 5 327 259
208 203 217 222 216 225 240 239 199 176 150 134 136 153 168 173 168 176 175 180 184 190 194 187 190 146 139 156 155 173 175 165 170 184 256 335 15 30 52 26 21 5 339
156 177 251 253 243 253 258 231 187 164 148 150 156 169 179 177 182 185 176 178 183 189 194 197 199 186 188 187 185 188 167 144 144 156 198 312 321 280 152 64 349 336 322
166 212 248 261 265 302 334 199 170 159 178 170 154 159 161 164 201 182 177 182 183 192 209 217 211 191 188 189 189 179 164 160 159 161 219 277 295 269 234 237 253 282 271
191 223 229 224 181 165 180 157 125 100 53 126 146 158 167 246 203 171 170 167 178 191 215 236 233 213 180 177 181 175 173 179 186 190 213 230 250 254 242 221 229 261 274
132 233 173 146 184 202 177 123 120 125 122 46 96 157 205 245 209 193 181 166 170 203 225 234 242 239 189 186 182 172 183 189 186 191 203 227 230 230 211 222 224 239 250
36 335 339 125 178 135 110 118 141 152 181 229 336 275 262 276 225 191 153 148 159 212 229 223 218 244 216 182 173 172 219 232 215 209 214 230 232 218 207 210 209 230 263
246 274 289 222 181 148 146 191 206 157 322 284 246 250 272 282 248 189 152 148 175 254 265 239 216 231 233 180 174 193 234 261 255 219 226 242 236 217 185 152 151 164 264
248 254 267 236 199 203 212 215 214 184 235 284 306 284 264 274 262 215 170 165 195 237 268 270 249 236 240 195 199 206 229 247 247 265 299 308 284 232 185 184 188 196 225
243 267 306 271 219 207 211 201 166 160 73 22 320 314 302 278 270 230 189 190 204 220 238 252 258 235 228 214 206 217 229 232 229 224 247 281 305 299 256 217 200 199 214
232 245 285 278 257 217 183 207 152 139 114 334 329 320 313 302 282 251 215 212 208 210 236 251 257 250 242 233 221 229 232 226 218 204 223 261 271 281 277 256 225 224 231
244 248 265 271 277 215 188 203 221 181 202 266 278 287 299 312 308 287 252 232 227 225 242 242 245 251 256 250 237 237 229 215 204 209 224 245 254 259 263 273 254 230 256
236 253 239 192 228 303 237 216 212 220 228 239 247 259 274 289 293 293 281 253 233 230 245 254 269 301 289 294 300 278 235 213 208 219 227 236 253 263 264 258 255 268 295
237 250 245 220 217 238 272 253 229 230 220 223 236 238 240 259 266 254 237 240 225 211 174 132 109 353 336 320 310 304 268 216 217 222 214 212 215 237 280 278 261 279 254
218 235 235 227 228 224 252 310 306 258 252 239 235 230 238 236 246 239 233 240 219 181 162 196 235 247 251 258 266 288 283 260 243 221 209 213 220 231 262 279 268 235 242
212 218 223 221 215 222 235 253 287 320 333 310 277 249 230 223 226 238 223 210 197 162 178 225 242 244 248 249 249 257 267 267 252 231 226 219 215 224 237 251 252 251 258
216 214 212 218 219 223 230 241 251 261 292 311 317 283 237 217 213 212 174 120 129 192 221 236 243 246 247 247 247 246 255 256 244 230 226 227 213 214 223 236 237 242 252
210 210 208 214 220 225 228 235 248 256 260 277 305 324 309 241 205 198 166 178 217 233 238 245 248 248 253 255 256 254 255 249 237 224 224 228 217 211 222 233 237 233 238
203 210 197 194 207 223 231 232 245 254 261 259 261 270 289 100 291 263 221 231 237 246 247 250 254 254 251 255 258 252 252 252 237 225 224 226 220 214 219 227 233 238 245
200 215 199 194 222 230 233 236 240 246 257 267 268 259 214 221 241 249 247 244 243 248 251 250 252 253 250 250 252 249 249 249 238 229 221 219 217 218 225 225 228 236 244
176 204 207 214 224 231 245 246 246 249 256 265 278 276 231 234 248 255 259 258 253 249 250 249 249 251 249 246 245 247 250 251 242 227 221 218 217 218 223 231 230 227 223
177 186 199 215 217 237 248 252 249 253 262 267 272 274 259 251 253 254 259 261 260 260 255 247 252 261 265 255 244 242 243 241 229 215 211 215 217 217 215 220 217 209 208
186 190 199 212 223 233 246 255 254 259 266 273 278 276 268 261 259 261 263 267 268 267 259 247 248 252 254 251 236 232 234 232 219 211 207 205 209 212 209 211 215 208 205
184 186 201 216 222 233 246 253 258 264 273 278 280 282 279 273 274 275 274 273 272 269 267 258 255 252 249 241 234 228 223 215 206 198 198 199 203 206 203 207 214 217 213
187 190 206 225 233 237 241 249 257 261 266 275 283 290 289 286 286 292 293 289 285 282 277 265 261 247 239 232 235 228 208 206 207 195 183 189 193 197 192 193 192 199 206
Height
1508 1508 1509 1509 1509 1509 1510 1510 1510 1511 1511 1512 1512 1512 1512 1513 1513 1514 1514 1514 1514 1514 1514 1514 1514 1515 1515 1516 1516 1517 1517 1518 1517 1518 1519 1519 1519 1520 1521 1521 1521 1521 1522
1506 1506 1507 1507 1507 1507 1507 1508 1508 1509 1509 1510 1510 1511 1511 1511 1512 1512 1513 1513 1513 1513 1513 1513 1513 1514 1514 1514 1515 1515 1516 1516 1516 1516 1517 1518 1518 1519 1519 1519 1520 1520 1520
1504 1504 1504 1505 1505 1505 1505 1506 1506 1507 1508 1508 1509 1509 1510 1510 1511 1511 1511 1512 1512 1512 1512 1512 1512 1513 1513 1513 1513 1514 1514 1515 1515 1515 1515 1516 1516 1517 1517 1518 1518 1518 1519
1502 1503 1502 1503 1503 1503 1503 1503 1504 1505 1506 1506 1507 1507 1508 1508 1509 1509 1510 1510 1510 1510 1511 1511 1511 1511 1512 1512 1512 1512 1513 1513 1514 1514 1514 1514 1514 1515 1515 1515 1516 1517 1517
1501 1501 1501 1501 1501 1501 1502 1502 1503 1503 1504 1505 1505 1505 1506 1506 1507 1507 1508 1508 1509 1509 1509 1509 1510 1510 1510 1510 1510 1511 1511 1511 1512 1512 1512 1512 1512 1513 1513 1513 1514 1514 1514
1500 1500 1500 1500 1500 1500 1500 1501 1501 1501 1502 1502 1502 1503 1503 1504 1504 1505 1506 1506 1507 1507 1507 1508 1508 1508 1508 1509 1509 1509 1509 1510 1509 1510 1510 1510 1510 1510 1511 1511 1511 1511 1511
1498 1499 1499 1499 1499 1499 1499 1499 1499 1500 1500 1500 1499 1500 1501 1501 1502 1503 1503 1504 1504 1505 1505 1505 1506 1506 1506 1506 1507 1507 1507 1507 1508 1508 1507 1507 1507 1508 1508 1508 1508 1508 1508
1497 1497 1497 1497 1497 1497 1498 1498 1498 1498 1498 1498 1498 1498 1499 1499 1500 1500 1500 1501 1501 1502 1503 1503 1503 1504 1504 1504 1504 1504 1504 1504 1505 1505 1505 1505 1505 1505 1505 1506 1505 1506 1506
1495 1495 1496 1496 1496 1496 1496 1496 1496 1496 1496 1496 1496 1496 1497 1497 1497 1498 1498 1498 1499 1499 1500 1501 1501 1501 1501 1502 1502 1501 1501 1502 1502 1502 1503 1503 1503 1503 1503 1503 1503 1503 1503
1493 1493 1494 1494 1494 1494 1494 1494 1494 1494 1494 1494 1494 1494 1494 1494 1495 1495 1496 1496 1496 1496 1497 1497 1498 1498 1498 1498 1499 1499 1498 1499 1499 1500 1500 1500 1500 1500 1500 1500 1500 1500 1500
1491 1491 1492 1492 1492 1492 1492 1492 1492 1492 1491 1491 1491 1492 1492 1492 1492 1493 1493 1493 1493 1493 1493 1493 1494 1494 1495 1495 1495 1495 1495 1496 1496 1496 1496 1497 1497 1497 1497 1497 1498 1498 1498
1489 1489 1490 1490 1490 1490 1490 1490 1490 1489 1489 1489 1489 1489 1489 1489 1490 1490 1490 1490 1490 1490 1490 1490 1491 1491 1491 1492 1492 1492 1492 1493 1493 1493 1493 1493 1493 1494 1494 1494 1495 1495 1495
1488 1488 1488 1488 1488 1488 1488 1488 1487 1487 1487 1486 1487 1487 1487 1487 1487 1487 1487 1487 1487 1487 1487 1487 1487 1487 1488 1488 1488 1488 1489 1489 1489 1489 1489 1490 1490 1490 1491 1491 1491 1491 1492
1486 1486 1486 1486 1485 1486 1485 1485 1485 1485 1485 1484 1484 1484 1484 1484 1484 1484 1484 1484 1484 1484 1484 1484 1484 1484 1484 1484 1484 1484 1484 1485 1485 1485 1485 1486 1487 1487 1487 1487 1487 1487 1487
1484 1484 1484 1483 1483 1483 1483 1483 1482 1482 1482 1482 1481 1481 1481 1481 1481 1481 1480 1480 1480 1480 1480 1480 1480 1480 1480 1480 1480 1480 1480 1481 1481 1481 1481 1482 1483 1483 1483 1484 1484 1483 1483
1482 1482 1481 1481 1481 1481 1480 1480 1479 1480 1479 1479 1479 1479 1478 1478 1478 1478 1477 1477 1477 1477 1477 1476 1476 1476 1476 1476 1476 1476 1477 1476 1476 1477 1477 1478 1478 1479 1480 1480 1480 1479 1479
1479 1479 1479 1479 1479 1478 1478 1477 1476 1476 1476 1476 1476 1475 1475 1475 1475 1475 1474 1474 1474 1474 1473 1473 1473 1473 1472 1473 1472 1472 1473 1473 1473 1473 1474 1474 1474 1475 1476 1476 1476 1476 1476
1477 1477 1477 1477 1476 1476 1475 1475 1474 1474 1473 1472 1472 1472 1472 1472 1472 1471 1471 1471 1471 1470 1470 1470 1469 1469 1469 1469 1469 1469 1469 1469 1470 1470 1470 1470 1471 1471 1471 1472 1472 1472 1472
1474 1474 1474 1474 1474 1474 1473 1473 1472 1471 1471 1470 1469 1469 1469 1469 1469 1469 1468 1468 1467 1467 1467 1467 1466 1466 1466 1466 1466 1466 1466 1465 1466 1466 1466 1466 1467 1467 1468 1468 1469 1469 1469
1472 1472 1472 1472 1472 1472 1471 1470 1470 1469 1468 1468 1467 1467 1467 1466 1466 1465 1465 1465 1464 1464 1464 1464 1463 1463 1463 1462 1462 1462 1462 1462 1462 1462 1462 1463 1463 1464 1464 1465 1465 1465 1465
1469 1469 1470 1470 1469 1469 1469 1468 1467 1467 1466 1466 1465 1465 1464 1464 1463 1463 1462 1462 1462 1461 1461 1460 1460 1459 1459 1459 1458 1458 1458 1458 1458 1458 1459 1459 1460 1460 1460 1461 1461 1461 1461
1467 1468 1468 1467 1467 1467 1466 1466 1465 1465 1464 1464 1463 1462 1462 1461 1461 1460 1460 1460 1459 1459 1458 1457 1457 1456 1456 1455 1455 1454 1454 1455 1455 1455 1455 1455 1456 1456 1457 1457 1457 1457 1457
1465 1465 1465 1465 1465 1464 1464 1464 1463 1462 1462 1461 1461 1460 1459 1459 1458 1458 1457 1457 1457 1456 1455 1454 1453 1453 1452 1452 1451 1451 1451 1451 1451 1451 1451 1451 1452 1453 1453 1453 1453 1453 1453
1463 1463 1463 1463 1462 1462 1461 1461 1460 1460 1460 1459 1458 1458 1457 1456 1456 1455 1455 1454 1454 1453 1452 1451 1450 1450 1449 1449 1448 1447 1448 1448 1447 1448 1448 1448 1448 1449 1449 1450 1450 1450 1450
1461 1461 1461 1460 1460 1460 1459 1459 1458 1458 1458 1457 1456 1456 1455 1454 1453 1453 1452 1451 1451 1450 1449 1448 1447 1446 1446 1445 1445 1444 1445 1445 1444 1444 1445 1445 1445 1446 1446 1446 1447 1447 1447
1458 1458 1458 1458 1458 1457 1457 1457 1456 1456 1456 1455 1454 1453 1453 1452 1451 1450 1450 1449 1448 1447 1446 1445 1444 1443 1443 1442 1442 1442 1442 1442 1442 1442 1442 1442 1442 1443 1443 1444 1444 1445 1445